User: anonymous   Login
Location: Unspecified
(0.0000°N, 0.0000°E)
Time: 06:21:50
(UTC+00:00)
Language:

Picosat 5 - Orbit

View from above orbital plane
View from above orbital plane
View from above satellite
View from above satellite

Ground track
Ground track

The orbit data is extracted from the following two-line orbital elements,

1 26093U 00004L   18116.62179525 +.00000308 +00000-0 +92902-4 0  9995
2 26093 100.2136 294.2765 0030122 219.4666 140.4329 14.51373501960268
Epoch (UTC): 26 April 2018 14:55:23
Eccentricity: 0.0030122
inclination: 100.2136°
perigee height: 700 km
apogee height: 742 km
right ascension of ascending node: 294.2765°
argument of perigee: 219.4666°
revolutions per day: 14.51373501
mean anomaly at epoch: 140.4329°
orbit number at epoch: 96026

The dashed part of the orbit path shows where the satellite is in the earth's shadow,  

DLR